Location: Whitehorse
(60.7170°N, 135.0500°W)
Time: 13:29:47
(UTC-07:00)

SL-16 R/B - Visible Passes

Search period start: 28 July 2014 00:00
Search period end: 07 August 2014 00:00
Orbit: 841 x 849 km, 71.0° (Epoch: 28 July)

Date Brightness Start Highest point End Pass type
(mag) Time Alt. Az. Time Alt. Az. Time Alt. Az.
28 Jul 2.4 00:15:00 10° NW 00:20:38 65° WSW 00:26:16 10° SSE visible
28 Jul 4.0 02:00:02 10° WNW 02:03:50 19° W 02:07:36 10° SW visible
29 Jul 2.4 00:01:02 10° NW 00:06:41 66° WSW 00:12:19 10° SSE visible
29 Jul 4.0 01:46:03 10° WNW 01:49:54 19° W 01:53:45 10° SW visible
29 Jul 2.4 23:47:05 10° NW 23:52:45 68° WSW 23:58:23 10° SSE visible
30 Jul 4.0 01:32:03 10° WNW 01:35:58 19° W 01:39:53 10° SW visible
30 Jul 2.4 23:33:07 10° NW 23:38:48 69° SW 23:44:26 10° SSE visible
31 Jul 4.0 01:18:04 10° WNW 01:22:03 20° WSW 01:26:01 10° SW visible
01 Aug 4.0 01:04:05 10° WNW 01:08:07 20° WSW 01:12:09 10° SSW visible
02 Aug 4.0 00:50:06 10° NW 00:54:11 21° WSW 00:58:17 10° SSW visible
03 Aug 4.0 00:36:06 10° NW 00:40:16 21° WSW 00:44:24 10° SSW visible
04 Aug 4.1 00:22:08 10° NW 00:26:20 22° WSW 00:30:32 10° SSW visible
05 Aug 4.1 00:08:09 10° NW 00:12:24 22° WSW 00:16:39 10° SSW visible
05 Aug 4.1 23:54:10 10° NW 23:58:29 23° WSW 00:02:47 10° SSW visible
06 Aug 4.1 23:40:11 10° NW 23:44:33 23° WSW 23:48:54 10° SSW visible
